User: anonymous   Login
Location: Unspecified
(0.0000°N, 0.0000°E)
Time: 21:10:48
(UTC+00:00)
Language:

RESURS DK-1 - Orbit

View from above orbital plane
View from above orbital plane
View from above satellite
View from above satellite

Ground track
Ground track

The orbit data is extracted from the following two-line orbital elements,

1 29228U 06021A   16209.52911321  .00000101  00000-0  15113-4 0  9991
2 29228  69.9340 203.9514 0002465 156.5739 203.5534 15.01947530559357
Epoch (UTC): 27 July 2016 12:41:55
Eccentricity: 0.0002465
inclination: 69.9340°
perigee height: 559 km
apogee height: 562 km
right ascension of ascending node: 203.9514°
argument of perigee: 156.5739°
revolutions per day: 15.01947530
mean anomaly at epoch: 203.5534°
orbit number at epoch: 55935

The dashed part of the orbit path shows where the satellite is in the earth's shadow,  

DLR